Weather History for Copper Mountain, CO

Change the Weather History Date:

Saturday, February 23, 2013

  Actual Average (KLXV) Record (KLXV)
Temperature  
Mean Temperature 14 °F -  
Max Temperature 24 °F 33 °F 46 °F (2002)
Min Temperature 3 °F 6 °F -11 °F (1979)
Degree Days  
Heating Degree Days 52 46  
Month to date heating degree days 1087  
Since 1 July heating degree days 7484  
Cooling Degree Days 0 0  
Month to date cooling degree days 0  
Year to date cooling degree days 0  
Moisture  
Dew Point 6 °F    
Average Humidity 73    
Maximum Humidity 80    
Minimum Humidity 64    
Precipitation  
Precipitation 0.00 in 0.03 in 0.42 in (1977)
Month to date precipitation 0.56  
Year to date precipitation 1.18  
Sea Level Pressure  
Sea Level Pressure 29.68 in    
Wind  
Wind Speed 17 mph (WSW)    
Max Wind Speed 30 mph    
Max Gust Speed 144 mph    
Visibility 4 miles    
Events Snow    
T = Trace of Precipitation, MM = Missing Value Source: NWS Daily Summary

Daily Weather History Graph

Daily Weather History Graph

Search for Another Location

Airport:

Trip Planner

Search our weather history database for the weather conditions in past years. The results will help you decide how hot, cold, wet, or windy it might be!

Date:

Astronomy

Feb. 23, 2013 Rise Set
Actual Time 6:45 AM MST 5:50 PM MST
Civil Twilight 6:18 AM MST 6:17 PM MST
Nautical Twilight 5:47 AM MST 6:49 PM MST
Astronomical Twilight 5:16 AM MST 7:20 PM MST
Moon 4:04 PM MST (2/23) 5:09 AM MST (2/23)
Length of Visible Light 11h 59m
Length of Day
11h 05m
Waxing Gibbous, 95% of the Moon is Illuminated
Feb 23
Waxing Gibbous
Feb 25
Full
Mar 4
Last Quarter
Mar 11
New
Mar 19
First Quarter

Hourly Weather History & Observations

Time (MST) Temp. Windchill Dew Point Humidity Pressure Visibility Wind Dir Wind Speed Gust Speed Precip Events Conditions
12:07 AM 5.0 °F -15.7 °F -4.0 °F 66% 29.77 in 1.8 mi West 20.7 mph 44.9 mph N/A   Haze
12:26 AM 5.0 °F - -4.0 °F 66% 29.77 in 2.5 mi North - - N/A   Haze
12:47 AM 3.2 °F -21.5 °F -4.0 °F 72% 29.76 in 7.0 mi West 29.9 mph 33.4 mph N/A   Mostly Cloudy
1:06 AM 3.2 °F -19.5 °F -4.0 °F 72% 29.76 in 10.0 mi West 24.2 mph 31.1 mph N/A   Mostly Cloudy
1:27 AM 5.0 °F -18.3 °F -4.0 °F 66% 29.76 in 7.0 mi West 27.6 mph 33.4 mph N/A   Overcast
1:46 AM 5.0 °F - -4.0 °F 66% 29.77 in 10.0 mi North - - N/A   Overcast
2:06 AM 5.0 °F - -4.0 °F 66% 29.77 in 7.0 mi North - - N/A   Overcast
2:27 AM 5.0 °F -15.7 °F -4.0 °F 66% 29.76 in 7.0 mi West 20.7 mph - N/A   Overcast
2:46 AM 5.0 °F -16.7 °F -4.0 °F 66% 29.77 in 4.0 mi West 23.0 mph 28.8 mph N/A   Haze
3:07 AM 5.0 °F -16.2 °F -4.0 °F 66% 29.78 in 2.0 mi West 21.9 mph - N/A   Haze
3:27 AM 5.0 °F -16.7 °F -4.0 °F 66% 29.77 in 1.8 mi West 23.0 mph - N/A   Haze
3:46 AM 5.0 °F -12.3 °F -4.0 °F 66% 29.76 in 5.0 mi West 13.8 mph - N/A   Haze
4:06 AM 5.0 °F -14.2 °F -4.0 °F 66% 29.76 in 7.0 mi West 17.3 mph - N/A   Overcast
4:26 AM 5.0 °F -9.1 °F -4.0 °F 66% 29.76 in 7.0 mi West 9.2 mph - N/A   Overcast
4:46 AM 5.0 °F -14.2 °F -4.0 °F 66% 29.75 in 10.0 mi West 17.3 mph 23.0 mph N/A   Overcast
5:07 AM 5.0 °F -16.2 °F -4.0 °F 66% 29.75 in 10.0 mi West 21.9 mph - N/A   Mostly Cloudy
5:27 AM 5.0 °F -14.7 °F -4.0 °F 66% 29.75 in 10.0 mi West 18.4 mph 40.3 mph N/A   Mostly Cloudy
5:47 AM 5.0 °F -15.7 °F -2.2 °F 72% 29.74 in 10.0 mi WSW 20.7 mph 42.6 mph N/A   Overcast
6:06 AM 5.0 °F -18.7 °F -4.0 °F 66% 29.73 in 10.0 mi WSW 28.8 mph 41.4 mph N/A   Mostly Cloudy
6:21 AM 5.0 °F -11.6 °F -2.2 °F 72% 29.73 in 10.0 mi WSW 12.7 mph 34.5 mph N/A   Mostly Cloudy
8:12 AM 6.8 °F - -0.4 °F 72% 29.75 in 7.0 mi North - - N/A Snow Light Snow
8:32 AM 10.4 °F 0.8 °F 3.2 °F 73% 29.74 in 4.0 mi SW 5.8 mph 123.1 mph N/A Snow Light Snow
8:52 AM 12.2 °F 1.7 °F 5.0 °F 73% 29.74 in 10.0 mi SSW 6.9 mph 143.8 mph N/A   Scattered Clouds
9:12 AM 12.2 °F -2.5 °F 5.0 °F 73% 29.73 in 7.0 mi South 12.7 mph - N/A   Scattered Clouds
9:32 AM 14.0 °F -0.2 °F 8.6 °F 79% 29.73 in 10.0 mi SSE 12.7 mph 16.1 mph N/A   Clear
9:52 AM 14.0 °F -0.2 °F 8.6 °F 79% 29.73 in 10.0 mi SSE 12.7 mph - N/A   Scattered Clouds
10:12 AM 14.0 °F 0.5 °F 8.6 °F 79% 29.73 in 7.0 mi South 11.5 mph - N/A Snow Light Snow
10:32 AM 14.0 °F 8.2 °F 8.6 °F 79% 29.73 in 1.2 mi SW 3.5 mph 10.4 mph N/A Snow Light Snow
10:52 AM 15.8 °F 6.1 °F 10.4 °F 79% 29.73 in 2.5 mi WSW 6.9 mph - N/A Snow Light Snow
11:12 AM 17.6 °F 8.2 °F 10.4 °F 73% 29.73 in 3.0 mi West 6.9 mph - N/A Snow Light Snow
11:32 AM 19.4 °F 12.8 °F 14.0 °F 80% 29.73 in 1.2 mi WSW 4.6 mph 17.3 mph N/A Snow Light Snow
11:52 AM 19.4 °F 7.9 °F 12.2 °F 74% 29.72 in 0.5 mi South 10.4 mph - N/A Snow Light Snow
12:12 PM 23.0 °F 11.1 °F 14.0 °F 68% 29.70 in 1.0 mi SSE 12.7 mph - N/A Snow Light Snow
12:32 PM 21.2 °F 13.6 °F 12.2 °F 68% 29.70 in 0.8 mi SSW 5.8 mph - N/A Snow Light Snow
12:52 PM 21.2 °F 10.9 °F 12.2 °F 68% 29.69 in 1.2 mi SSW 9.2 mph - N/A Snow Light Snow
1:12 PM 23.0 °F 12.4 °F 14.0 °F 68% 29.68 in 2.5 mi SW 10.4 mph 17.3 mph N/A Snow Light Snow
1:32 PM 21.2 °F 11.7 °F 14.0 °F 74% 29.68 in 1.5 mi WSW 8.1 mph - N/A Snow Light Snow
1:52 PM 21.2 °F 13.6 °F 14.0 °F 74% 29.66 in 0.5 mi WSW 5.8 mph - N/A Snow Snow
2:12 PM 23.0 °F 10.6 °F 14.0 °F 68% 29.66 in 1.8 mi WSW 13.8 mph 17.3 mph N/A Snow Light Snow
2:32 PM 21.2 °F 10.9 °F 14.0 °F 74% 29.65 in 0.8 mi SW 9.2 mph 19.6 mph N/A Snow Light Snow
2:52 PM 21.2 °F 7.3 °F 14.0 °F 74% 29.65 in 0.8 mi WSW 16.1 mph 27.6 mph N/A Snow Light Snow
3:12 PM 23.0 °F 10.1 °F 14.0 °F 68% 29.65 in 0.8 mi SW 15.0 mph 26.5 mph N/A Snow Light Snow
3:32 PM 23.0 °F 9.2 °F 14.0 °F 68% 29.64 in 1.2 mi WSW 17.3 mph 24.2 mph N/A Snow Light Snow
3:52 PM 24.8 °F 16.1 °F 14.0 °F 64% 29.63 in 2.0 mi South 8.1 mph - N/A Snow Light Snow
4:12 PM 23.0 °F 14.7 °F 14.0 °F 68% 29.61 in 3.0 mi South 6.9 mph - N/A Snow Light Snow
4:32 PM 23.0 °F 15.8 °F 14.0 °F 68% 29.60 in 10.0 mi West 5.8 mph - N/A   Overcast
4:52 PM 23.0 °F - 15.8 °F 74% 29.60 in 10.0 mi North - - N/A   Overcast
5:12 PM 21.2 °F 8.9 °F 14.0 °F 74% 29.60 in 10.0 mi West 12.7 mph - N/A   Overcast
5:52 PM 19.4 °F - 14.0 °F 80% 29.61 in 0.2 mi North - - N/A Snow Heavy Snow
6:12 PM 19.4 °F 5.5 °F 14.0 °F 80% 29.61 in 0.2 mi West 15.0 mph 20.7 mph N/A Snow Snow
6:32 PM 19.4 °F - 14.0 °F 80% 29.61 in 0.8 mi North - - N/A Snow Light Snow
6:52 PM 19.4 °F 7.9 °F 14.0 °F 80% 29.61 in 0.5 mi West 10.4 mph - N/A Snow Snow
7:12 PM 19.4 °F - 14.0 °F 80% 29.60 in 1.0 mi North - - N/A Snow Light Snow
7:32 PM 19.4 °F 5.0 °F 12.2 °F 74% 29.60 in 0.5 mi West 16.1 mph - N/A Snow Snow
7:52 PM 17.6 °F - 10.4 °F 73% 29.60 in 0.2 mi North - - N/A Snow Snow
8:12 PM 15.8 °F -0.2 °F 10.4 °F 79% 29.61 in 0.2 mi West 17.3 mph - N/A Snow Heavy Snow
8:32 PM 15.8 °F -0.6 °F 10.4 °F 79% 29.61 in - West 18.4 mph - N/A   Overcast
8:52 PM 14.0 °F - 8.6 °F 79% 29.61 in - North - - N/A   Overcast
9:32 PM 14.0 °F -0.8 °F 8.6 °F 79% 29.61 in - West 13.8 mph - N/A   Overcast
9:52 PM 14.0 °F - 8.6 °F 79% 29.60 in - North - - N/A   Overcast
10:12 PM 14.0 °F - 8.6 °F 79% 29.60 in - North - - N/A   Overcast
10:32 PM 14.0 °F -3.4 °F 8.6 °F 79% 29.59 in - West 19.6 mph - N/A   Overcast
10:52 PM 14.0 °F -2.0 °F 8.6 °F 79% 29.58 in - West 16.1 mph - N/A   Overcast
11:12 PM 14.0 °F - 8.6 °F 79% 29.58 in - North - - N/A   Overcast
11:32 PM 12.2 °F - 6.8 °F 79% 29.58 in - North - - N/A   Overcast
11:52 PM 12.2 °F - 5.0 °F 73% 29.58 in - North - - N/A   Overcast